�������l�o���
Date,Time,MP-1(��Sv/h),MP-2(��Sv/h),MP-3(��Sv/h),MP-4(��Sv/h),MP-5(��Sv/h),MP-6(��Sv/h),MP-7(��Sv/h),MP-8(��Sv/h),����,����(m/s),���J
2023/10/24,00:00,0.532,0.805,0.495,1.010,0.729,0.320,0.573,0.533,�k��,6.9,��
2023/10/24,00:10,0.531,0.803,0.494,1.012,0.728,0.321,0.571,0.533,�k�k��,6.6,��
2023/10/24,00:20,0.529,0.804,0.493,1.013,0.729,0.321,0.571,0.534,�k�k��,6.7,��
2023/10/24,00:30,0.529,0.804,0.494,1.011,0.727,0.320,0.572,0.531,�k�k��,6.4,��
2023/10/24,00:40,0.530,0.803,0.493,1.012,0.726,0.322,0.572,0.533,�k��,7.1,��
2023/10/24,00:50,0.530,0.804,0.496,1.010,0.728,0.321,0.574,0.533,�k��,6.5,��
2023/10/24,01:00,0.530,0.803,0.493,1.013,0.728,0.321,0.573,0.532,�k��,5.9,��
2023/10/24,01:10,0.528,0.807,0.495,1.012,0.728,0.320,0.571,0.534,�k��,6.6,��
2023/10/24,01:20,0.530,0.804,0.494,1.013,0.729,0.322,0.571,0.534,�k��,7.2,��
2023/10/24,01:30,0.530,0.805,0.493,1.013,0.728,0.320,0.572,0.533,�k��,6.7,��
2023/10/24,01:40,0.529,0.805,0.495,1.010,0.728,0.321,0.573,0.533,�k��,6.0,��
2023/10/24,01:50,0.528,0.803,0.495,1.013,0.728,0.320,0.572,0.532,�k��,6.4,��
2023/10/24,02:00,0.530,0.805,0.493,1.013,0.729,0.320,0.573,0.533,�k��,6.3,��
2023/10/24,02:10,0.530,0.805,0.494,1.009,0.729,0.321,0.572,0.533,�k��,6.6,��
2023/10/24,02:20,0.530,0.804,0.494,1.011,0.728,0.321,0.573,0.534,�k��,5.9,��
2023/10/24,02:30,0.530,0.804,0.494,1.013,0.728,0.321,0.573,0.533,�k��,5.6,��
2023/10/24,02:40,0.530,0.805,0.494,1.013,0.728,0.321,0.573,0.534,�k��,6.6,��
2023/10/24,02:50,0.529,0.803,0.495,1.012,0.728,0.322,0.573,0.533,�k��,6.4,��
2023/10/24,03:00,0.529,0.804,0.494,1.012,0.728,0.320,0.573,0.532,�k��,6.9,��
2023/10/24,03:10,0.529,0.803,0.494,1.011,0.728,0.320,0.573,0.533,�k��,5.6,��
2023/10/24,03:20,0.530,0.806,0.494,1.012,0.728,0.322,0.574,0.533,�k�k��,6.2,��
2023/10/24,03:30,0.529,0.805,0.494,1.012,0.729,0.322,0.574,0.533,�k�k��,5.6,��
2023/10/24,03:40,0.529,0.804,0.494,1.014,0.728,0.321,0.575,0.533,�k�k��,6.5,��
2023/10/24,03:50,0.531,0.804,0.494,1.011,0.727,0.320,0.575,0.533,�k�k��,6.2,��
2023/10/24,04:00,0.529,0.804,0.493,1.012,0.729,0.320,0.573,0.534,�k�k��,5.8,��
2023/10/24,04:10,0.530,0.804,0.493,1.014,0.727,0.320,0.573,0.534,�k�k��,6.4,��
2023/10/24,04:20,0.531,0.806,0.495,1.010,0.727,0.319,0.573,0.533,�k�k��,6.4,��
2023/10/24,04:30,0.531,0.806,0.494,1.010,0.728,0.321,0.574,0.532,�k�k��,6.2,��
2023/10/24,04:40,0.530,0.804,0.494,1.013,0.728,0.321,0.574,0.533,�k�k��,7.0,��
2023/10/24,04:50,0.530,0.803,0.496,1.011,0.726,0.321,0.573,0.534,�k�k��,6.1,��
2023/10/24,05:00,0.532,0.805,0.495,1.012,0.728,0.320,0.572,0.533,�k�k��,5.9,��
2023/10/24,05:10,0.530,0.804,0.494,1.014,0.730,0.320,0.573,0.534,�k�k��,6.3,��
2023/10/24,05:20,0.531,0.803,0.494,1.014,0.728,0.320,0.574,0.532,�k�k��,6.2,��
2023/10/24,05:30,0.530,0.805,0.495,1.011,0.728,0.320,0.574,0.534,�k�k��,6.4,��
2023/10/24,05:40,0.529,0.804,0.493,1.013,0.728,0.321,0.576,0.534,�k�k��,5.8,��
2023/10/24,05:50,0.531,0.803,0.495,1.013,0.728,0.320,0.575,0.532,�k�k��,6.2,��
2023/10/24,06:00,0.530,0.805,0.495,1.013,0.730,0.321,0.572,0.533,�k�k��,6.5,��
2023/10/24,06:10,0.530,0.803,0.493,1.011,0.729,0.320,0.576,0.533,�k�k��,5.9,��
2023/10/24,06:20,0.530,0.804,0.494,1.009,0.727,0.320,0.574,0.534,�k�k��,6.0,��
2023/10/24,06:30,0.529,0.804,0.495,1.013,0.728,0.319,0.574,0.533,�k�k��,5.5,��
2023/10/24,06:40,0.530,0.803,0.495,1.010,0.728,0.321,0.573,0.532,�k�k��,5.9,��
2023/10/24,06:50,0.530,0.805,0.493,1.012,0.727,0.318,0.574,0.533,�k�k��,6.1,��
2023/10/24,07:00,0.530,0.804,0.496,1.011,0.727,0.320,0.575,0.533,�k�k��,6.7,��
2023/10/24,07:10,0.529,0.804,0.494,1.012,0.729,0.320,0.574,0.534,�k�k��,6.0,��
2023/10/24,07:20,0.530,0.805,0.496,1.013,0.727,0.320,0.574,0.531,�k�k��,6.5,��
2023/10/24,07:30,0.530,0.806,0.495,1.010,0.729,0.321,0.576,0.532,�k�k��,5.6,��
2023/10/24,07:40,0.530,0.806,0.495,1.011,0.729,0.320,0.574,0.534,�k�k��,6.2,��
2023/10/24,07:50,0.530,0.805,0.496,1.013,0.729,0.320,0.574,0.534,�k�k��,5.2,��
2023/10/24,08:00,0.530,0.805,0.495,1.011,0.728,0.320,0.574,0.534,�k�k��,5.2,��
2023/10/24,08:10,0.531,0.805,0.496,1.012,0.728,0.320,0.576,0.534,�k�k��,4.5,��
2023/10/24,08:20,0.528,0.804,0.495,1.012,0.727,0.320,0.574,0.534,�k�k��,4.5,��
2023/10/24,08:30,0.531,0.800,0.497,1.011,0.728,0.322,0.573,0.533,�k�k��,5.5,��
2023/10/24,08:40,0.530,0.800,0.495,1.013,0.729,0.320,0.572,0.534,�k�k��,3.7,��
2023/10/24,08:50,0.530,0.802,0.495,1.013,0.726,0.322,0.575,0.534,�k�k��,4.4,��
2023/10/24,09:00,0.529,0.801,0.494,1.012,0.728,0.320,0.572,0.534,�k�k��,4.0,��
2023/10/24,09:10,0.529,0.801,0.494,1.015,0.728,0.321,0.573,0.534,�k�k��,3.7,��
2023/10/24,09:20,0.528,0.805,0.494,1.012,0.727,0.321,0.573,0.533,�k�k��,3.3,��
2023/10/24,09:30,0.529,0.805,0.495,1.013,0.728,0.320,0.573,0.533,�k�k��,3.4,��
2023/10/24,09:40,0.527,0.803,0.494,1.013,0.727,0.320,0.574,0.534,�k,3.6,��
2023/10/24,09:50,0.528,0.799,0.497,1.014,0.726,0.320,0.573,0.534,�k�k��,2.9,��
2023/10/24,10:00,0.529,0.801,0.495,1.014,0.727,0.319,0.576,0.533,�k,3.6,��
2023/10/24,10:10,0.529,0.801,0.495,1.013,0.727,0.318,0.574,0.535,�k,3.2,��
2023/10/24,10:20,0.530,0.798,0.494,1.008,0.727,0.319,0.572,0.532,�k�k��,2.9,��
2023/10/24,10:30,0.529,0.796,0.496,1.013,0.726,0.319,0.574,0.532,�k�k��,3.0,��
2023/10/24,10:40,0.531,0.798,0.496,1.014,0.718,0.320,0.573,0.531,�k,3.4,��
2023/10/24,10:50,0.530,0.800,0.494,1.012,0.727,0.319,0.573,0.531,�k,3.6,��
2023/10/24,11:00,0.531,0.799,0.495,1.013,0.728,0.319,0.573,0.533,�k�k��,3.3,��
2023/10/24,11:10,0.529,0.802,0.495,1.014,0.727,0.319,0.571,0.531,�k�k��,3.6,��
2023/10/24,11:20,0.531,0.802,0.495,1.011,0.729,0.320,0.573,0.532,�k�k��,4.5,��
2023/10/24,11:30,0.531,0.802,0.494,1.015,0.729,0.320,0.574,0.531,�k�k��,5.1,��
2023/10/24,11:40,0.531,0.801,0.496,1.014,0.728,0.319,0.572,0.533,�k�k��,5.2,��
2023/10/24,11:50,0.530,0.800,0.496,1.014,0.729,0.320,0.573,0.535,�k�k��,4.8,��
2023/10/24,12:00,0.532,0.801,0.497,1.014,0.731,0.320,0.574,0.533,�k�k��,4.1,��
2023/10/24,12:10,0.529,0.805,0.497,1.012,0.729,0.320,0.572,0.532,�k,4.3,��
2023/10/24,12:20,0.531,0.805,0.496,1.015,0.729,0.319,0.574,0.532,�k�k��,3.7,��
2023/10/24,12:30,0.531,0.798,0.497,1.014,0.729,0.319,0.572,0.532,�k�k��,4.8,��
2023/10/24,12:40,0.531,0.805,0.495,1.011,0.729,0.320,0.573,0.532,�k��,4.5,��
2023/10/24,12:50,0.531,0.806,0.497,1.013,0.732,0.322,0.572,0.533,�k�k��,4.9,��
2023/10/24,13:00,0.530,0.806,0.496,1.016,0.728,0.321,0.575,0.534,�k�k��,4.5,��
2023/10/24,13:10,0.531,0.803,0.496,1.014,0.729,0.319,0.574,0.533,�k,4.4,��
2023/10/24,13:20,0.531,0.805,0.496,1.010,0.729,0.320,0.575,0.533,�k�k��,3.8,��
2023/10/24,13:30,0.531,0.804,0.497,1.014,0.729,0.319,0.573,0.532,�k�k��,4.2,��
2023/10/24,13:40,0.530,0.798,0.497,1.014,0.731,0.320,0.574,0.533,�k�k��,3.8,��
2023/10/24,13:50,0.531,0.798,0.497,1.018,0.730,0.320,0.575,0.533,�k�k��,3.8,��
2023/10/24,14:00,0.530,0.799,0.496,1.014,0.730,0.319,0.575,0.533,�k��,4.0,��
2023/10/24,14:10,0.531,0.801,0.497,1.013,0.730,0.320,0.575,0.533,�k,4.0,��
2023/10/24,14:20,0.530,0.805,0.496,1.012,0.729,0.320,0.575,0.533,�k�k��,4.5,��
2023/10/24,14:30,0.530,0.802,0.495,1.012,0.729,0.319,0.574,0.534,�k,3.6,��
2023/10/24,14:40,0.531,0.803,0.496,1.011,0.730,0.319,0.575,0.531,�k�k��,3.4,��
2023/10/24,14:50,0.531,0.804,0.497,1.014,0.729,0.319,0.574,0.532,�k,3.7,��
2023/10/24,15:00,0.530,0.804,0.496,1.012,0.729,0.319,0.574,0.533,�k�k��,3.4,��
2023/10/24,15:10,0.529,0.805,0.498,1.009,0.730,0.321,0.575,0.533,�k�k��,3.0,��
2023/10/24,15:20,0.530,0.805,0.497,1.011,0.730,0.320,0.574,0.533,�k,2.8,��
2023/10/24,15:30,0.529,0.804,0.496,1.011,0.728,0.319,0.573,0.533,�k�k��,2.6,��
2023/10/24,15:40,0.530,0.804,0.496,1.011,0.730,0.320,0.574,0.532,�k,2.6,��
2023/10/24,15:50,0.529,0.806,0.497,1.010,0.730,0.320,0.573,0.532,�k�k��,2.3,��
2023/10/24,16:00,0.528,0.804,0.495,1.012,0.730,0.322,0.575,0.532,�k�k��,2.0,��
2023/10/24,16:10,0.529,0.803,0.497,1.008,0.729,0.322,0.574,0.531,�k�k��,2.0,��
2023/10/24,16:20,0.529,0.806,0.495,1.011,0.730,0.321,0.574,0.534,�k�k��,2.5,��
2023/10/24,16:30,0.530,0.806,0.495,1.013,0.729,0.321,0.576,0.534,�k��,2.5,��
2023/10/24,16:40,0.530,0.807,0.495,1.014,0.730,0.321,0.575,0.534,�k�k��,3.4,��
2023/10/24,16:50,0.529,0.808,0.495,1.016,0.732,0.322,0.575,0.536,�k�k��,3.0,��
2023/10/24,17:00,0.530,0.808,0.498,1.014,0.732,0.322,0.576,0.535,�k��,2.8,��
2023/10/24,17:10,0.531,0.807,0.497,1.014,0.732,0.323,0.575,0.533,�k��,3.2,��
2023/10/24,17:20,0.530,0.807,0.499,1.012,0.733,0.321,0.577,0.536,�k�k��,3.5,��
2023/10/24,17:30,0.533,0.810,0.498,1.015,0.732,0.321,0.574,0.536,�k��,3.2,��
2023/10/24,17:40,0.531,0.808,0.497,1.015,0.732,0.323,0.574,0.535,�k��,3.3,��
2023/10/24,17:50,0.532,0.809,0.498,1.014,0.730,0.322,0.573,0.533,�k��,3.4,��
2023/10/24,18:00,0.532,0.809,0.498,1.014,0.733,0.322,0.574,0.535,���k��,3.3,��
2023/10/24,18:10,0.532,0.807,0.499,1.015,0.732,0.322,0.574,0.535,�k��,3.4,��
2023/10/24,18:20,0.531,0.809,0.497,1.014,0.729,0.322,0.574,0.534,�k��,2.3,��
2023/10/24,18:30,0.531,0.809,0.498,1.012,0.731,0.321,0.575,0.533,���k��,2.3,��
2023/10/24,18:40,0.532,0.807,0.497,1.013,0.732,0.322,0.576,0.533,���k��,2.3,��
2023/10/24,18:50,0.531,0.808,0.498,1.014,0.732,0.322,0.575,0.535,���k��,2.8,��
2023/10/24,19:00,0.533,0.807,0.497,1.015,0.732,0.322,0.577,0.535,���k��,2.5,��
2023/10/24,19:10,0.532,0.806,0.497,1.013,0.731,0.321,0.575,0.533,���k��,2.3,��
2023/10/24,19:20,0.532,0.809,0.497,1.011,0.733,0.322,0.574,0.536,���k��,3.3,��
2023/10/24,19:30,0.532,0.807,0.498,1.014,0.733,0.322,0.575,0.535,�k��,2.0,��
2023/10/24,19:40,0.530,0.807,0.498,1.014,0.730,0.322,0.575,0.534,���k��,2.0,��
2023/10/24,19:50,0.532,0.808,0.497,1.014,0.732,0.321,0.574,0.533,���k��,2.3,��
2023/10/24,20:00,0.530,0.807,0.497,1.015,0.732,0.322,0.574,0.534,���k��,3.0,��
2023/10/24,20:10,0.531,0.807,0.499,1.015,0.732,0.322,0.574,0.535,���k��,1.9,��
2023/10/24,20:20,0.531,0.808,0.497,1.014,0.732,0.323,0.573,0.534,�k��,3.1,��
2023/10/24,20:30,0.532,0.808,0.495,1.014,0.730,0.323,0.575,0.532,�k��,2.5,��
2023/10/24,20:40,0.530,0.806,0.496,1.013,0.733,0.322,0.573,0.535,���k��,2.3,��
2023/10/24,20:50,0.530,0.808,0.496,1.016,0.732,0.322,0.574,0.534,���k��,0.9,��
2023/10/24,21:00,0.530,0.807,0.498,1.013,0.731,0.322,0.575,0.534,�k��,2.2,��
2023/10/24,21:10,0.531,0.805,0.497,1.015,0.731,0.322,0.574,0.534,�k��,2.0,��
2023/10/24,21:20,0.529,0.806,0.498,1.013,0.731,0.322,0.574,0.533,�k��,2.5,��
2023/10/24,21:30,0.530,0.807,0.498,1.014,0.730,0.321,0.574,0.535,�k��,2.6,��
2023/10/24,21:40,0.530,0.805,0.497,1.014,0.731,0.322,0.574,0.534,�k�k��,3.7,��
2023/10/24,21:50,0.531,0.806,0.497,1.014,0.729,0.322,0.575,0.534,�k�k��,4.3,��
2023/10/24,22:00,0.531,0.806,0.498,1.014,0.731,0.322,0.573,0.534,�k�k��,4.2,��
2023/10/24,22:10,0.531,0.806,0.497,1.014,0.732,0.323,0.574,0.534,�k�k��,4.7,��
2023/10/24,22:20,0.532,0.807,0.496,1.015,0.731,0.322,0.573,0.534,�k�k��,5.0,��
2023/10/24,22:30,0.531,0.806,0.497,1.013,0.732,0.322,0.573,0.534,�k�k��,4.7,��
2023/10/24,22:40,0.532,0.806,0.495,1.014,0.730,0.322,0.574,0.534,�k�k��,4.4,��
2023/10/24,22:50,0.532,0.808,0.497,1.014,0.729,0.323,0.572,0.534,�k�k��,4.5,��
2023/10/24,23:00,0.529,0.806,0.498,1.014,0.732,0.321,0.574,0.534,�k�k��,4.9,��
2023/10/24,23:10,0.531,0.807,0.498,1.013,0.730,0.322,0.572,0.533,�k�k��,4.7,��
2023/10/24,23:20,0.531,0.807,0.497,1.016,0.731,0.322,0.574,0.535,�k�k��,4.4,��
2023/10/24,23:30,0.530,0.805,0.497,1.015,0.733,0.322,0.573,0.533,�k�k��,5.0,��
2023/10/24,23:40,0.532,0.804,0.496,1.014,0.731,0.321,0.574,0.532,�k�k��,4.8,��
2023/10/24,23:50,0.529,0.806,0.497,1.014,0.730,0.320,0.573,0.535,�k�k��,5.4,��
